RH
36 34 34 37 40 41 39 38 38 38 38 38 38 38 38 38 37 36 36 34 32 29 26 24 22 21 20 21 20 18 16 12 9 6 4 3 2 2 2 2 2 2 2 2 2 2 1 1 1 1 1 1
35 34 36 40 41 40 39 39 39 39 39 39 39 39 38 38 37 36 34 32 29 26 24 23 22 21 20 20 18 15 11 8 5 3 2 2 2 2 2 2 2 2 2 2 2 1 1 1 1 1 1 1
34 35 39 42 42 40 40 39 39 39 39 39 39 39 38 38 37 36 34 31 28 26 24 23 22 20 19 17 14 11 7 5 3 2 2 2 2 2 2 2 2 2 2 2 1 1 1 1 1 1 1 1
34 38 42 43 41 40 40 40 39 39 39 38 38 38 38 38 37 36 34 31 29 26 25 23 22 20 17 14 10 7 4 3 2 2 2 2 2 2 2 2 2 2 1 1 1 1 1 1 1 1 1 1
36 41 43 42 41 40 40 40 39 39 39 38 38 39 38 38 38 37 35 32 30 27 25 23 21 18 14 10 7 5 3 2 2 2 2 2 2 2 2 2 2 2 1 1 1 1 1 1 1 1 1 1
39 42 43 42 41 41 40 40 40 39 39 39 39 39 39 39 39 38 36 33 30 28 26 23 20 15 11 7 5 4 3 2 2 2 2 2 2 2 2 2 1 1 1 1 1 1 1 1 1 1 1 1
41 43 42 42 41 41 41 40 40 39 39 40 40 39 39 39 39 39 38 34 31 28 25 22 17 12 8 6 4 3 2 2 2 2 2 2 2 2 2 1 1 1 1 1 1 1 1 1 1 1 1 1
41 42 42 42 42 42 41 41 40 40 40 40 40 39 38 38 39 39 38 35 31 28 25 20 14 9 6 4 3 2 2 2 2 2 2 2 2 1 1 1 1 1 1 1 1 1 1 1 1 1 1 1
41 41 42 42 42 42 41 41 41 41 41 41 40 38 38 38 38 39 37 34 30 27 23 18 12 7 4 3 2 2 2 2 2 2 2 1 1 1 1 1 1 1 1 1 1 1 1 1 1 1 1 1
41 41 42 42 41 41 41 41 41 42 42 41 40 38 38 38 38 38 37 34 30 26 21 16 10 5 3 2 2 2 2 2 2 2 1 1 1 1 1 1 1 1 1 1 1 1 1 1 1 1 1 1
41 42 42 42 42 42 41 41 41 42 43 42 40 39 38 38 38 38 36 33 29 24 20 14 8 4 3 2 2 1 1 1 1 1 1 1 1 1 1 1 1 1 1 1 1 1 1 1 1 1 1 1
41 42 42 42 43 42 41 41 42 43 43 42 40 39 39 38 38 38 36 33 28 23 17 11 6 3 2 2 1 1 1 1 1 1 1 1 1 1 1 1 1 1 1 1 1 1 1 1 1 1 1 1
42 42 42 43 43 43 42 41 42 43 43 43 41 39 39 38 38 38 36 32 27 21 15 9 5 3 2 1 1 1 1 1 1 1 1 1 1 1 1 1 1 1 1 1 1 1 1 1 1 1 1 1
41 41 42 43 44 43 42 40 42 43 44 43 41 40 39 38 38 38 37 32 27 20 13 8 4 3 2 1 1 1 1 1 1 1 1 1 1 1 1 1 1 1 1 1 1 1 1 1 1 1 1 1
41 41 42 43 44 43 42 40 41 43 44 43 41 41 40 38 38 38 37 32 26 19 12 7 4 3 1 1 1 1 1 1 1 1 1 1 1 1 1 1 1 1 1 1 1 1 1 1 1 1 1 1
41 42 43 43 44 43 41 40 41 43 44 43 42 41 40 39 38 39 37 33 27 19 12 7 4 3 1 1 1 1 1 1 1 1 1 1 1 1 1 1 1 1 1 1 1 1 1 1 1 1 1 1
42 42 43 43 44 43 41 39 41 43 44 43 43 42 41 39 38 39 38 34 28 19 12 7 4 2 1 1 1 1 1 1 1 1 1 1 1 1 1 1 1 1 1 1 1 1 1 1 1 1 1 1
42 43 43 43 43 42 40 39 41 43 44 44 43 43 41 39 38 39 39 35 29 20 13 7 4 2 1 1 1 1 1 1 1 1 1 1 1 1 1 1 1 1 1 1 1 1 1 1 1 1 1 1
42 43 43 43 43 41 40 40 41 43 45 45 44 44 42 40 39 39 39 37 31 22 13 7 4 2 1 1 1 1 1 1 1 1 1 1 1 1 1 1 1 1 1 1 1 1 1 1 1 1 1 2
42 43 43 43 42 41 40 40 42 44 45 45 45 45 43 40 39 39 40 38 33 23 13 7 4 2 1 1 1 1 1 1 1 1 1 1 1 1 1 1 1 1 1 1 1 1 1 1 2 1 2 2
42 43 43 42 42 40 40 41 42 45 46 46 46 45 44 42 39 40 40 39 35 25 15 8 4 2 1 1 1 1 1 1 1 1 1 1 1 1 1 1 1 1 1 1 1 1 2 2 2 2 2 2
42 43 43 42 41 40 41 42 43 45 46 47 47 46 45 43 40 40 40 41 37 27 16 9 5 3 1 1 1 1 1 1 1 1 1 1 1 1 1 1 1 1 1 1 1 1 2 2 2 2 2 2
42 42 42 41 41 41 41 43 44 46 47 47 47 46 46 45 42 40 41 41 39 31 19 11 6 3 2 1 0 1 1 1 1 1 1 1 1 1 1 1 1 1 1 1 2 2 2 2 2 2 2 2
41 41 41 41 40 41 42 43 45 46 47 47 47 46 46 46 44 42 41 42 41 34 23 15 8 4 2 1 1 1 1 1 1 1 1 1 1 1 1 1 1 1 2 1 2 2 2 3 2 2 2 2
40 41 41 40 40 42 42 44 45 46 47 47 47 47 47 47 45 43 41 42 42 37 28 18 10 5 2 1 1 1 1 1 1 1 1 1 1 1 1 2 1 2 2 2 2 3 3 3 2 2 2 2
39 40 40 41 41 42 43 45 46 46 47 47 47 47 47 48 47 45 43 42 42 39 31 21 12 6 3 1 1 1 1 1 1 1 1 1 1 1 1 1 2 2 2 2 3 3 3 3 2 3 3 2
39 39 40 41 41 43 44 45 46 46 47 46 47 47 47 48 48 47 45 44 44 41 34 23 14 7 3 1 1 1 1 1 1 1 1 1 1 1 2 1 2 2 3 3 3 3 3 3 3 3 3 3
39 40 41 42 42 44 45 46 46 46 46 46 47 47 47 48 48 48 47 46 45 42 36 26 15 8 4 2 1 1 1 1 1 1 1 1 1 2 2 2 2 2 3 3 3 4 3 4 3 3 4 3
39 40 41 42 42 44 45 46 46 46 46 46 46 47 48 48 49 49 49 48 47 43 38 28 17 9 4 2 1 1 1 1 1 1 1 1 1 2 2 2 3 3 4 4 4 4 4 4 4 4 4 4
39 40 41 42 43 45 46 46 46 46 46 46 47 47 48 49 49 50 50 49 49 45 39 30 18 9 4 1 1 1 1 1 1 1 1 1 2 2 2 2 3 3 4 4 4 5 4 4 4 4 4 4
39 40 41 42 43 45 47 46 46 46 46 46 47 48 49 50 50 50 51 50 50 47 40 31 19 9 4 1 1 1 1 1 1 1 1 2 2 2 2 3 3 4 5 5 5 4 4 4 4 4 5 5
Wind_Speed
6 6 6 5 5 5 6 7 9 10 11 13 14 16 17 18 19 19 20 20 20 20 20 21 21 21 21 21 20 19 18 18 17 17 17 16 16 16 16 17 17 18 18 18 18 18 18 18 19 19 19 20
6 5 4 4 4 4 6 7 8 10 12 13 15 16 18 18 19 19 20 19 19 20 20 21 22 21 21 20 19 18 18 17 17 17 16 16 16 16 17 17 17 18 18 18 18 18 19 19 19 20 20 21
6 4 4 3 3 4 5 7 9 10 12 14 16 17 18 19 19 19 19 19 20 20 21 21 21 21 20 19 18 18 17 17 16 16 16 16 16 17 17 17 17 18 18 18 18 19 19 20 20 21 21 22
5 4 3 2 3 4 5 7 9 11 13 15 16 17 18 19 19 19 20 20 20 20 21 21 21 20 19 19 18 17 16 16 16 16 16 16 17 17 17 17 18 18 18 19 19 19 20 20 21 21 22 22
5 4 3 2 2 4 6 8 9 11 13 15 17 18 18 19 19 20 20 20 20 21 21 21 20 20 18 17 17 16 16 16 16 16 17 17 17 17 18 18 18 19 19 19 19 20 20 20 21 21 21 22
6 5 3 2 2 4 6 8 10 12 14 15 17 18 19 19 20 20 20 20 21 21 21 21 20 19 18 17 16 15 15 15 16 16 17 17 17 18 19 19 19 19 19 19 19 19 20 20 20 21 21 22
6 5 4 3 3 4 6 8 10 12 14 15 17 18 19 20 20 20 21 21 21 21 21 20 19 18 17 16 16 15 15 15 16 16 17 18 18 19 19 19 19 19 19 19 19 19 19 20 20 21 22 23
7 6 4 3 4 5 7 9 10 12 14 16 17 19 20 21 21 21 21 21 21 21 21 20 18 17 17 16 15 15 15 15 16 17 17 18 19 19 19 19 18 18 18 18 19 19 19 19 20 21 22 23
7 6 4 4 4 6 7 9 10 12 14 16 18 19 20 21 22 22 22 21 21 21 20 19 18 17 16 16 15 15 15 16 16 17 18 18 19 19 18 18 18 18 18 18 18 19 19 20 21 22 23 24
8 7 5 5 6 7 8 9 11 12 14 16 18 19 20 21 22 22 21 21 21 21 20 19 18 17 16 16 16 16 16 17 17 18 18 18 18 18 18 18 18 18 18 18 19 19 20 21 21 22 23 24
8 6 6 6 7 8 8 9 11 12 14 16 17 19 20 21 22 22 21 21 21 20 20 19 18 17 17 16 16 16 17 17 18 18 17 17 17 17 18 18 18 18 18 19 20 20 21 21 22 23 24 25
8 7 7 8 8 8 8 9 10 12 13 15 17 19 20 22 22 22 22 21 21 20 20 19 18 17 17 16 16 17 17 17 17 17 17 17 17 17 18 18 18 19 19 20 20 20 20 21 22 23 24 25
9 8 9 9 9 8 9 9 10 12 13 15 17 19 21 22 22 22 22 22 21 21 20 19 18 17 17 17 17 17 17 17 16 16 16 17 17 18 18 18 19 19 19 20 20 20 21 22 23 24 25 26
10 10 9 9 9 9 9 9 10 12 13 15 17 19 20 21 22 22 22 22 21 21 20 19 18 18 17 17 17 17 17 17 17 17 17 17 18 18 18 18 19 19 19 19 19 20 22 23 23 24 25 26
11 11 10 10 9 9 9 9 10 12 13 15 17 18 20 21 22 22 22 21 21 20 20 19 19 18 18 18 18 18 17 17 17 17 17 18 18 18 18 18 18 18 18 19 20 21 22 23 23 24 25 25
12 12 11 11 10 9 9 10 10 11 13 14 16 18 19 21 21 22 21 21 21 21 20 19 19 19 18 18 18 18 18 17 17 18 18 18 18 18 18 18 18 18 18 20 21 22 22 22 23 24 24 24
13 13 12 11 10 9 9 10 10 11 12 13 15 17 19 20 22 22 22 22 21 21 20 19 18 18 18 18 18 18 18 18 18 18 19 19 18 18 18 17 17 18 19 21 21 21 21 22 22 23 24 24
14 13 13 12 11 10 10 10 10 11 12 13 15 17 19 20 21 22 22 22 22 21 20 19 18 18 18 18 18 18 18 19 19 19 19 19 18 18 17 17 18 19 20 20 21 21 21 22 22 23 23 23
15 14 13 12 11 11 10 10 10 11 11 12 14 16 18 20 21 22 22 22 22 21 20 19 19 18 18 18 19 19 19 19 19 19 18 18 17 17 17 17 18 19 20 20 20 20 21 22 22 22 22 23
16 15 14 13 12 11 10 10 10 10 11 12 13 16 18 19 21 22 22 22 22 21 20 19 19 19 19 19 19 19 19 19 19 19 18 17 17 16 17 18 19 19 19 19 19 20 21 21 20 20 21 22
17 16 15 14 12 11 11 11 11 10 10 11 13 15 17 19 21 22 22 22 22 22 21 20 20 19 19 20 20 20 20 20 19 18 18 17 17 17 17 18 18 18 19 19 19 19 19 19 19 19 20 21
18 17 15 14 13 12 11 11 11 10 10 11 12 14 17 19 20 22 23 23 23 22 22 21 20 20 20 20 20 20 20 20 19 18 18 17 17 17 17 17 17 18 18 18 18 18 18 18 18 19 19 20
19 18 16 15 14 12 11 11 11 10 9 10 12 14 16 18 20 22 23 23 23 23 22 22 21 21 20 20 20 20 20 20 19 18 18 18 17 17 17 17 17 17 17 17 17 17 16 16 17 18 19 20
20 18 17 16 14 13 12 12 11 10 9 10 11 13 15 18 20 22 23 24 24 24 23 22 22 21 21 20 20 20 20 20 19 19 18 17 17 16 16 16 16 16 17 17 17 17 16 16 16 17 19 20
20 19 18 17 15 13 12 12 11 9 9 9 11 13 15 17 19 21 23 24 24 24 24 23 22 22 21 21 20 20 20 19 19 19 18 17 16 16 16 16 16 16 16 17 16 15 16 16 17 19 21 22
21 20 19 18 16 14 13 12 11 9 8 9 10 12 15 17 19 21 23 24 24 24 24 23 23 22 22 21 20 20 20 20 19 19 18 17 16 16 16 15 15 16 16 16 15 14 15 15 17 19 21 23
22 21 20 19 17 15 14 12 11 9 8 8 10 12 14 16 19 21 22 23 24 24 24 23 22 22 21 21 20 20 20 20 19 18 18 17 16 16 15 15 16 16 16 17 17 17 18 19 21 22 23 24
23 23 22 21 18 16 15 13 11 9 8 8 10 12 14 16 18 20 22 23 23 24 24 23 22 21 21 21 20 20 20 20 19 18 17 17 16 15 15 15 16 16 17 17 18 19 20 21 22 23 25 26
24 25 24 22 19 18 16 14 12 10 8 9 10 12 14 16 18 20 21 22 23 23 23 23 22 21 21 20 20 20 19 19 19 18 17 16 15 15 14 15 15 16 16 17 17 18 19 21 21 22 23 25
26 27 25 23 21 19 17 15 13 11 10 9 11 12 14 16 18 20 21 22 23 23 23 23 22 21 20 20 20 19 18 18 18 17 16 15 14 14 14 14 15 15 15 16 16 17 17 19 20 21 22 23
29 28 26 24 23 21 19 17 14 13 11 11 12 13 14 16 18 19 21 22 22 22 22 22 21 20 20 20 19 18 17 17 17 16 16 15 14 13 13 14 14 14 15 15 15 15 16 17 19 20 21 22
Wind_Direction
295 299 311 321 324 331 346 354 354 350 349 349 349 348 346 344 342 341 340 339 337 335 335 334 334 335 335 336 337 338 339 338 337 337 337 336 334 332 331 331 331 331 331 331 331 331 331 332 331 330 329 328
288 297 302 306 317 333 351 355 352 349 350 349 349 347 345 343 342 341 340 338 337 337 337 337 337 337 337 338 339 339 339 338 337 336 334 333 331 331 330 330 331 331 330 331 331 332 332 332 331 330 330 331
281 283 279 287 316 342 354 354 350 349 350 349 348 346 344 342 342 341 340 339 340 339 339 338 338 338 339 339 340 340 339 337 336 333 331 330 330 330 330 330 330 331 331 333 334 333 333 332 332 332 332 332
269 259 259 279 319 347 354 350 348 347 348 347 346 344 343 342 342 342 342 342 341 340 339 339 339 339 340 340 340 339 337 335 333 331 331 330 330 330 330 330 331 333 335 335 334 334 333 332 332 333 332 332
251 241 246 272 320 348 349 345 344 344 345 345 344 343 343 343 344 344 344 343 341 340 340 341 341 340 340 339 338 336 335 333 332 331 331 331 330 330 331 334 336 336 336 335 334 333 331 331 332 332 332 333
236 232 242 268 316 337 338 339 340 342 343 343 344 344 345 345 345 345 344 343 341 340 341 342 341 340 339 337 336 335 334 333 333 332 331 331 331 333 336 337 337 336 334 332 331 330 331 333 333 333 333 334
228 231 240 269 302 323 331 335 336 338 340 343 345 346 346 346 345 345 344 342 340 340 342 342 341 340 337 336 335 334 334 333 333 332 332 334 336 338 338 337 335 333 330 329 330 332 333 334 333 334 336 338
227 232 240 263 294 316 325 329 331 335 340 344 346 347 347 346 346 346 344 342 341 342 343 342 341 339 337 335 335 334 333 334 334 336 338 339 339 339 337 335 332 329 329 330 333 333 333 334 336 340 342 344
229 234 241 264 292 310 316 323 328 336 342 345 346 346 346 346 347 344 343 342 342 343 342 342 340 339 338 335 334 334 335 337 340 341 342 342 339 338 335 332 329 329 332 333 333 333 336 340 342 344 344 344
230 234 245 269 290 301 310 322 330 337 341 344 345 345 346 346 346 344 342 342 343 343 341 341 340 340 337 335 335 337 340 342 344 345 343 341 339 336 333 330 331 332 333 333 335 339 342 344 344 344 345 346
231 237 250 268 284 296 310 321 328 335 339 342 343 345 347 347 346 344 343 344 344 342 341 341 341 339 337 336 338 341 344 345 345 344 342 340 337 335 333 333 334 334 335 338 341 343 343 343 344 345 347 348
232 242 253 267 281 295 308 317 325 332 336 339 343 346 347 347 346 345 345 345 344 343 342 342 340 339 337 338 342 344 345 345 344 342 341 340 338 337 336 336 337 338 340 342 342 342 342 343 345 347 348 350
236 246 256 267 280 293 304 313 322 328 333 338 342 346 345 346 346 345 346 346 345 344 343 342 340 339 339 342 344 346 346 344 343 342 342 341 340 339 338 339 339 341 342 341 340 339 342 344 346 349 351 354
239 249 258 267 278 291 301 310 318 324 330 336 341 343 344 346 346 347 347 346 345 345 344 342 341 341 342 345 346 346 345 343 343 343 342 341 340 339 339 341 341 342 341 339 339 341 344 347 349 352 356 359
242 249 258 265 275 288 298 307 314 321 327 334 339 341 344 346 346 348 348 347 347 345 344 343 342 343 344 346 347 345 343 342 343 343 342 340 340 340 341 342 342 341 339 339 342 345 348 350 353 357 1 3
243 250 257 264 273 284 294 302 310 317 324 331 335 340 345 346 348 350 349 348 348 346 345 344 344 345 345 346 345 343 342 342 343 342 342 341 341 341 342 342 342 340 340 343 346 348 351 354 358 2 4 6
243 250 256 262 271 280 289 298 306 311 320 327 334 342 345 346 349 350 350 350 349 347 345 344 345 345 345 345 344 342 341 342 343 343 342 342 342 342 343 342 341 341 345 348 349 351 354 358 2 5 6 7
243 249 255 261 268 276 284 293 300 306 315 324 334 342 344 346 350 351 351 351 349 347 345 344 345 345 345 344 343 341 342 343 343 343 343 342 342 342 342 341 342 346 349 350 351 354 357 1 4 6 7 9
243 248 254 260 265 272 281 287 293 300 311 323 335 341 344 346 350 351 352 351 349 347 345 345 345 345 345 344 343 342 343 343 343 343 341 340 340 341 341 343 347 350 350 351 353 356 359 3 4 6 9 11
242 247 252 258 263 269 276 282 287 295 308 322 334 340 343 347 350 351 352 351 349 347 346 346 345 345 345 345 344 343 343 343 342 341 339 339 339 341 344 347 350 351 351 352 355 358 1 3 4 7 9 9
242 246 251 255 260 265 271 277 282 291 306 320 332 338 342 346 350 351 351 351 350 348 347 346 346 345 345 345 344 343 342 342 341 339 338 338 340 343 346 349 351 351 352 353 356 360 3 3 4 6 7 6
242 245 249 253 257 262 267 272 278 288 303 318 329 336 340 346 349 350 351 352 351 349 347 346 346 345 346 345 344 343 342 341 339 337 337 338 340 344 348 350 351 352 352 354 358 2 3 2 2 4 4 4
241 244 248 251 254 259 264 268 274 284 299 315 326 333 339 345 349 350 351 352 352 350 347 346 345 345 345 344 343 342 340 338 337 335 335 337 341 345 348 351 351 351 351 353 359 2 3 1 359 1 1 2
241 244 247 249 252 256 260 264 271 280 296 313 324 330 337 344 348 349 351 353 352 349 346 345 345 344 344 343 342 340 338 336 334 334 335 337 341 345 349 350 349 349 350 354 360 1 359 358 356 356 358 360
241 243 245 247 250 252 255 259 266 276 293 311 323 330 337 343 347 348 351 352 352 349 346 344 344 344 343 342 340 338 335 334 333 334 334 337 341 346 348 348 347 348 350 356 359 356 355 354 352 354 357 357
241 242 244 246 247 248 250 254 260 272 290 309 323 330 337 342 345 347 350 351 351 348 345 343 344 343 342 340 338 336 334 332 332 332 334 337 341 344 345 345 345 347 350 353 353 351 352 352 353 357 357 355
242 243 244 244 244 244 245 249 256 268 287 307 321 329 337 342 343 345 348 349 350 347 345 343 342 342 340 338 335 333 332 331 331 331 333 336 340 342 342 344 346 348 350 350 350 351 352 353 356 358 356 357
243 243 243 242 242 242 242 245 252 263 282 302 316 327 336 340 342 343 345 347 348 346 344 342 341 340 338 335 333 331 329 329 329 330 332 335 339 340 341 344 347 348 349 350 351 352 353 355 357 357 355 357
243 243 242 241 240 239 239 243 249 260 276 294 310 323 332 337 340 340 342 345 346 345 343 340 339 338 336 333 330 328 327 328 328 329 332 334 337 338 340 343 345 347 349 350 350 351 354 355 355 355 356 355
243 243 242 240 239 238 238 243 248 258 272 288 304 317 326 332 336 337 339 342 343 344 342 339 338 336 333 329 326 325 325 326 326 327 329 331 333 335 337 340 343 346 348 348 349 351 351 350 351 353 355 354
243 244 242 240 238 237 238 242 249 257 269 283 297 310 320 326 330 333 336 338 340 341 340 337 335 333 330 325 322 322 323 323 324 325 326 328 330 332 334 338 342 344 344 344 346 347 345 346 349 351 351 351